[[{"header":{"parameterUnit":"m.s-1","parameterCategory":2,"la1":30.2991,"la2":30.254,"lo1":-89.0895,"lo2":-89.0444,"dy":0.0017,"dx":0.0017,"nx":28,"ny":28,"refTime":"2025-08-15T09:00:00:Z","depth":"0","parameterNumber":2,"parameterNumberName":"U-component_of_CURRENTS"},"data":[0,0,0,0,0,0,0,0,0,0,0,0,0,0,0,0,0,0,0,0,0,0,0,0,0,0,0,0,0,0,0,0,0,0,0,0,0,0,0,0,0,0,0,0,0,0,0,0,0,0,0,0,0,0,0,0,0,0,0.2186,0.2186,0,0.2145,0.2144,0.2144,0.2112,0.2113,0.2113,0.2113,0.2029,0.2027,0.2024,0,0,0,0,0,0,0,0,0,0,0,0,0,0.2191,0.2191,0.2186,0.2186,0.2186,0.2145,0.2144,0.2143,0.2112,0.2113,0.2113,0.2113,0.203,0.2027,0.2024,0,0,0,0,0,0,0,0,0,0,0,0,0,0.217,0.2191,0.2186,0.2169,0.2167,0.2146,0.2144,0.2143,0.2112,0.2113,0.2113,0.2113,0.2031,0.2027,0.2024,0.1999,0,0,0.2013,0.2012,0,0,0,0,0,0,0,0,0.2171,0.2169,0.2172,0.217,0.2168,0.2138,0.2116,0.2094,0.2112,0.2129,0.2113,0.2113,0.2064,0.2058,0.2044,0.1995,0.1992,0.2013,0.2011,0.2009,0.2008,0,0,0,0,0,0,0,0.2173,0.217,0.2166,0.2172,0.2169,0.2147,0.2144,0.2111,0.2092,0.2127,0.2126,0.2128,0.2062,0.2048,0.2042,0.1991,0.2013,0.201,0.2008,0.2006,0.1955,0.1955,0,0,0,0,0,0,0.2188,0.2172,0.2167,0.2165,0.2175,0.2148,0.2144,0.2144,0.2093,0.2087,0.2128,0.2127,0.2054,0.2046,0.2039,0.2043,0.2009,0.2006,0.2004,0.1954,0.1955,0.1956,0,0,0,0,0,0,0.2189,0.2188,0.2169,0.2171,0.2168,0.2148,0.2148,0.2143,0.2134,0.2095,0.2087,0.2125,0.2054,0.2044,0.2023,0.2038,0.2004,0.2001,0.1953,0.1954,0.1955,0.2027,0,0,0,0,0,0,0.2189,0.2188,0.2189,0.2172,0.2168,0.2162,0.2148,0.2142,0.2137,0.2135,0.209,0.2082,0.2053,0.2029,0.202,0.2032,0.1999,0.1952,0.1954,0.1955,0.2024,0.203,0.2036,0,0,0,0,0,0.2189,0.2186,0.2189,0.2188,0.2171,0.2163,0.2158,0.2142,0.2137,0.2133,0.2111,0.2083,0.2031,0.2026,0.2016,0.2028,0.1952,0.1953,0.1955,0.2021,0.2029,0.2036,0,0,0,0,0,0,0.2169,0.2183,0.2185,0.2181,0.2179,0.2159,0.2153,0.2147,0.2125,0.2124,0.2086,0.2077,0.2066,0.2036,0.2032,0.2018,0.1989,0.1988,0.2043,0.205,0.2056,0.2057,0.1996,0,0,0,0,0,0.2172,0.2183,0.2185,0.218,0.2184,0.2171,0.2165,0.2159,0.2142,0.2133,0.2105,0.2079,0.2062,0.2049,0.2023,0.201,0.2012,0.2012,0.2019,0.2024,0.2018,0.2041,0.2049,0.1961,0.1961,0.1961,0,0,0.2156,0.2171,0.217,0.2179,0.2174,0.2176,0.2166,0.2163,0.2164,0.2126,0.2111,0.2095,0.2064,0.2055,0.2048,0.2033,0.2057,0.2026,0.2031,0.2022,0.2044,0.2052,0.206,0.1962,0.1962,0.1962,0,0,0.2141,0.2152,0.216,0.2168,0.218,0.2178,0.2183,0.2174,0.217,0.2159,0.2142,0.2139,0.2096,0.2089,0.2078,0.2101,0.209,0.2094,0.2123,0.2146,0.2154,0.216,0.2208,0.2218,0.2097,0.2097,0.2097,0,0.2121,0.2137,0.2155,0.217,0.2178,0.2184,0.2189,0.2186,0.217,0.2174,0.2162,0.2138,0.2114,0.212,0.2131,0.2115,0.2133,0.21,0.2156,0.2162,0.2168,0.2214,0.2224,0.2101,0.21,0.21,0.2099,0,0.2118,0.2132,0.2136,0.2165,0.2175,0.2179,0.2194,0.22,0.2201,0.2199,0.2206,0.2185,0.2175,0.2174,0.2155,0.2185,0.219,0.2164,0.2141,0.2181,0.2228,0.2237,0.2106,0.2104,0.2103,0.2102,0,0,0.206,0.2123,0.2121,0.2144,0.2177,0.2183,0.2202,0.2219,0.224,0.223,0.2251,0.2235,0.2237,0.2225,0.2216,0.2233,0.2301,0.2217,0.2217,0.2272,0.2378,0.2498,0.252,0.2288,0.229,0.2291,0.2408,0,0.2046,0.2082,0.2115,0.2137,0.2157,0.2188,0.2208,0.223,0.2248,0.2269,0.2271,0.2279,0.2255,0.2264,0.2279,0.2291,0.2323,0.2273,0.2323,0.2324,0.2432,0.2534,0.26,0.272,0.2417,0.2418,0.2419,0,0.2028,0.2062,0.2088,0.215,0.216,0.2172,0.2225,0.2246,0.2289,0.2306,0.2329,0.233,0.2361,0.2329,0.2385,0.2357,0.2372,0.238,0.2384,0.2472,0.2463,0.2622,0.2748,0.2628,0.2433,0.2432,0.2431,0,0.199,0.2039,0.2065,0.2082,0.2148,0.2165,0.2197,0.2249,0.2285,0.2334,0.2366,0.2396,0.2426,0.244,0.2476,0.2431,0.2549,0.2486,0.2612,0.262,0.2674,0.2687,0.2693,0.2525,0.2525,0.2525,0.2524,0,0.1969,0.1987,0.2049,0.2063,0.2093,0.2149,0.2189,0.2231,0.2304,0.2361,0.2381,0.2441,0.2454,0.2521,0.2522,0.2639,0.2596,0.265,0.267,0.2706,0.272,0.2612,0.2506,0.2529,0.2528,0.2527,0.2526,0,0.1925,0.1966,0.1998,0.2061,0.2076,0.2099,0.2181,0.2226,0.2296,0.2376,0.2397,0.2496,0.2608,0.2647,0.2709,0.2732,0.2747,0.2837,0.2905,0.2931,0.2934,0.283,0.277,0.2687,0.2997,0.3001,0.3005,0,0.1911,0.1924,0.1979,0.1996,0.202,0.2065,0.2107,0.2201,0.2269,0.2417,0.2467,0.2603,0.2715,0.2895,0.2988,0.3084,0.289,0.3175,0.3094,0.2985,0.288,0.2697,0.2614,0.3196,0.3201,0.3204,0.3207,0,0.1881,0.1896,0.1921,0.1956,0.1991,0.2036,0.2112,0.2167,0.23,0.2397,0.2552,0.2655,0.2899,0.3066,0.3237,0.3294,0.3061,0.3257,0.311,0.3031,0.2862,0.2776,0.3067,0.3241,0.3237,0.3235,0.3233,0.3232,0.1846,0.1853,0.1885,0.1913,0.1952,0.2,0.2037,0.2157,0.2272,0.2433,0.2566,0.2744,0.3036,0.3316,0.3372,0.3495,0.3292,0.3406,0.3292,0.3118,0.3026,0.3425,0.3637,0.3636,0.3635,0.3634,0.3634,0,0.1807,0.1825,0.1848,0.1881,0.1905,0.1942,0.2039,0.2096,0.2231,0.2433,0.2583,0.2887,0.314,0.3353,0.359,0.3511,0.3356,0.339,0.3102,0.3016,0.3378,0.3377,0.3584,0.3584,0.3584,0.3584,0.3584,0.3584,0.1787,0.1794,0.181,0.1824,0.1848,0.188,0.1925,0.2031,0.2182,0.2394,0.258,0.2737,0.3039,0.334,0.3412,0.3378,0.3041,0.3016,0.2814,0.3035,0.3024,0.3013,0.2987,0.3109,0.3109,0.244,0.2434,0.243]},{"header":{"parameterUnit":"m.s-1","parameterCategory":2,"la1":30.2991,"la2":30.254,"lo1":-89.0895,"lo2":-89.0444,"dy":0.0017,"dx":0.0017,"nx":28,"ny":28,"refTime":"2025-08-15T09:00:00:Z","depth":"0","parameterNumber":3,"parameterNumberName":"V-component_of_CURRENTS"},"data":[0,0,0,0,0,0,0,0,0,0,0,0,0,0,0,0,0,0,0,0,0,0,0,0,0,0,0,0,0,0,0,0,0,0,0,0,0,0,0,0,0,0,0,0,0,0,0,0,0,0,0,0,0,0,0,0,0,0,-0.1195,-0.1196,0,-0.1291,-0.1292,-0.1293,-0.1347,-0.1348,-0.1348,-0.1348,-0.1424,-0.1426,-0.1428,0,0,0,0,0,0,0,0,0,0,0,0,0,-0.1084,-0.1086,-0.1195,-0.1196,-0.1198,-0.1291,-0.1292,-0.1294,-0.1347,-0.1348,-0.1348,-0.1348,-0.1424,-0.1426,-0.1428,0,0,0,0,0,0,0,0,0,0,0,0,0,-0.1152,-0.1086,-0.1195,-0.1235,-0.124,-0.1291,-0.1292,-0.1294,-0.1347,-0.1348,-0.1348,-0.1348,-0.1423,-0.1426,-0.1429,-0.1442,0,0,-0.1437,-0.1439,0,0,0,0,0,0,0,0,-0.1148,-0.1156,-0.1228,-0.1233,-0.1238,-0.1307,-0.1281,-0.1343,-0.1347,-0.1307,-0.1348,-0.1348,-0.1383,-0.1389,-0.1408,-0.1446,-0.1449,-0.1438,-0.1439,-0.1441,-0.1441,0,0,0,0,0,0,0,-0.1143,-0.1152,-0.1234,-0.1229,-0.1235,-0.1257,-0.1267,-0.1293,-0.1343,-0.1311,-0.1315,-0.1324,-0.1386,-0.1405,-0.141,-0.145,-0.1438,-0.144,-0.1442,-0.1443,-0.1503,-0.1503,0,0,0,0,0,0,-0.1129,-0.1148,-0.1231,-0.1237,-0.1192,-0.1259,-0.127,-0.1285,-0.1343,-0.1352,-0.1324,-0.1327,-0.14,-0.1406,-0.1413,-0.1415,-0.1441,-0.1443,-0.1445,-0.1503,-0.1503,-0.1503,0,0,0,0,0,0,-0.1126,-0.1136,-0.1227,-0.1193,-0.1207,-0.126,-0.1277,-0.1287,-0.1304,-0.1353,-0.1362,-0.1331,-0.14,-0.1409,-0.1429,-0.1419,-0.1445,-0.1447,-0.1503,-0.1503,-0.1503,-0.143,0,0,0,0,0,0,-0.1123,-0.1134,-0.1137,-0.1193,-0.1208,-0.1248,-0.1277,-0.1289,-0.1309,-0.1313,-0.1362,-0.137,-0.1401,-0.1425,-0.1432,-0.1423,-0.145,-0.1503,-0.1503,-0.1503,-0.1433,-0.1428,-0.1423,0,0,0,0,0,-0.1119,-0.1119,-0.1137,-0.1147,-0.1212,-0.1248,-0.1257,-0.1297,-0.1309,-0.1313,-0.1344,-0.1368,-0.1429,-0.1427,-0.1436,-0.1427,-0.1503,-0.1503,-0.1503,-0.1435,-0.1429,-0.1423,0,0,0,0,0,0,-0.1069,-0.1126,-0.1147,-0.1164,-0.1199,-0.1256,-0.1263,-0.129,-0.1319,-0.1321,-0.1365,-0.1375,-0.1389,-0.142,-0.1417,-0.1445,-0.147,-0.1472,-0.1416,-0.141,-0.1406,-0.1395,-0.1452,0,0,0,0,0,-0.106,-0.1077,-0.1131,-0.1143,-0.1158,-0.1208,-0.1227,-0.1255,-0.129,-0.1304,-0.1336,-0.1371,-0.1396,-0.1411,-0.144,-0.1454,-0.1477,-0.1456,-0.1451,-0.1447,-0.1445,-0.1474,-0.1471,-0.1502,-0.1502,-0.1502,0,0,-0.1042,-0.1077,-0.1085,-0.1134,-0.1164,-0.1178,-0.122,-0.1243,-0.1254,-0.1306,-0.1321,-0.1353,-0.1396,-0.1412,-0.1421,-0.1435,-0.1447,-0.1446,-0.1442,-0.1443,-0.1473,-0.147,-0.1468,-0.1501,-0.1501,-0.1501,0,0,-0.1009,-0.1046,-0.1046,-0.1072,-0.1115,-0.1151,-0.1153,-0.1205,-0.1225,-0.1248,-0.1284,-0.1306,-0.1351,-0.1378,-0.1397,-0.1384,-0.1419,-0.1395,-0.1363,-0.1391,-0.1388,-0.1386,-0.1393,-0.1393,-0.1394,-0.1394,-0.1394,0,-0.0981,-0.0995,-0.1048,-0.1054,-0.1066,-0.1132,-0.1127,-0.1162,-0.1212,-0.1221,-0.1241,-0.13,-0.1334,-0.1352,-0.1351,-0.1371,-0.1389,-0.1378,-0.1383,-0.1382,-0.1381,-0.1389,-0.1389,-0.139,-0.1391,-0.1391,-0.1392,0,-0.0955,-0.0958,-0.0958,-0.099,-0.1012,-0.1018,-0.1073,-0.1095,-0.1127,-0.1161,-0.1185,-0.1236,-0.127,-0.1285,-0.1316,-0.1328,-0.1341,-0.1369,-0.1393,-0.1373,-0.1383,-0.1384,-0.1385,-0.1387,-0.1388,-0.1389,0,0,-0.0907,-0.0931,-0.0928,-0.0917,-0.0976,-0.0983,-0.1009,-0.1042,-0.1042,-0.1099,-0.1097,-0.1157,-0.1189,-0.1214,-0.1256,-0.1285,-0.1291,-0.1323,-0.1327,-0.132,-0.1338,-0.1287,-0.1284,-0.1322,-0.1323,-0.1323,-0.1339,0,-0.0863,-0.0834,-0.0875,-0.0847,-0.0834,-0.0899,-0.0911,-0.0952,-0.0995,-0.1011,-0.1076,-0.1092,-0.1162,-0.1167,-0.1212,-0.127,-0.1296,-0.1283,-0.1367,-0.1369,-0.1318,-0.1285,-0.1175,-0.1175,-0.1341,-0.1341,-0.1341,0,-0.0826,-0.0808,-0.0761,-0.0756,-0.0757,-0.0756,-0.0778,-0.0797,-0.0857,-0.0889,-0.094,-0.0996,-0.1049,-0.1105,-0.1208,-0.1198,-0.1263,-0.1313,-0.1315,-0.1296,-0.1321,-0.1227,-0.1173,-0.1295,-0.1344,-0.1344,-0.1344,0,-0.0745,-0.073,-0.0678,-0.0678,-0.0689,-0.0678,-0.0692,-0.0746,-0.0746,-0.0804,-0.0806,-0.0902,-0.0921,-0.1035,-0.1152,-0.1182,-0.1251,-0.1304,-0.1319,-0.1316,-0.1253,-0.1243,-0.1318,-0.137,-0.137,-0.137,-0.137,0,-0.0682,-0.064,-0.0625,-0.0592,-0.0533,-0.0581,-0.054,-0.0579,-0.0612,-0.0592,-0.0723,-0.0723,-0.0906,-0.0977,-0.1108,-0.12,-0.122,-0.1299,-0.1314,-0.1222,-0.121,-0.134,-0.1452,-0.1371,-0.1371,-0.1371,-0.1371,0,-0.0595,-0.059,-0.052,-0.0497,-0.0485,-0.0438,-0.0429,-0.0407,-0.0459,-0.0437,-0.0446,-0.057,-0.0663,-0.0831,-0.099,-0.1108,-0.1269,-0.1249,-0.1115,-0.1114,-0.125,-0.1362,-0.145,-0.1516,-0.1273,-0.1272,-0.1271,0,-0.0543,-0.0494,-0.0426,-0.038,-0.0359,-0.0308,-0.0277,-0.0317,-0.0296,-0.0336,-0.0308,-0.0394,-0.0435,-0.0644,-0.0846,-0.1032,-0.1199,-0.1075,-0.112,-0.1226,-0.1364,-0.1429,-0.1484,-0.1006,-0.1003,-0.1001,-0.0999,0,-0.0436,-0.0408,-0.0349,-0.0256,-0.0197,-0.0138,-0.0097,-0.0057,-0.0098,-0.0076,-0.0065,-0.0093,-0.0281,-0.0399,-0.065,-0.0811,-0.1133,-0.1029,-0.1178,-0.1187,-0.1224,-0.1302,-0.1028,-0.0976,-0.0978,-0.098,-0.0981,-0.0982,-0.0351,-0.0287,-0.0214,-0.0129,-0.0062,0.0015,0.0075,0.012,0.0184,0.0242,0.0186,0.0246,0.0028,-0.0291,-0.0557,-0.0896,-0.0991,-0.0997,-0.1129,-0.1189,-0.1236,-0.0898,-0.0843,-0.0844,-0.0845,-0.0846,-0.0847,0,-0.025,-0.0192,-0.0101,-0.0002,0.0083,0.0092,0.018,0.0242,0.0346,0.0476,0.0529,0.0592,0.0305,-0.0061,-0.0525,-0.0888,-0.1067,-0.1109,-0.1193,-0.1256,-0.0966,-0.0937,-0.0849,-0.0849,-0.0848,-0.0848,-0.0848,-0.0848,-0.0192,-0.0091,-0.0053,0.0101,0.017,0.028,0.0337,0.0441,0.0559,0.0801,0.0985,0.1073,0.0887,-0.0098,-0.0795,-0.1024,-0.1348,-0.138,-0.1596,-0.1412,-0.1412,-0.1412,-0.1409,-0.1422,-0.1422,-0.1772,-0.1776,-0.1779]}],[{"header":{"parameterUnit":"m.s-1","parameterCategory":2,"la1":30.2991,"la2":30.254,"lo1":-89.0895,"lo2":-89.0444,"dy":0.0017,"dx":0.0017,"nx":28,"ny":28,"refTime":"2025-08-15T09:00:00:Z","depth":"2","parameterNumber":2,"parameterNumberName":"U-component_of_CURRENTS"},"data":[0,0,0,0,0,0,0,0,0,0,0,0,0,0,0,0,0,0,0,0,0,0,0,0,0,0,0,0,0,0,0,0,0,0,0,0,0,0,0,0,0,0,0,0,0,0,0,0,0,0,0,0,0,0,0,0,0,0,0.2147,0.2148,0,0.2224,0.2225,0.2226,0.225,0.225,0.225,0.225,0.2301,0.2303,0.2304,0,0,0,0,0,0,0,0,0,0,0,0,0,0.2059,0.2061,0.2147,0.2148,0.2149,0.2224,0.2225,0.2226,0.225,0.225,0.225,0.2249,0.2301,0.2303,0.2305,0,0,0,0,0,0,0,0,0,0,0,0,0,0.2112,0.2061,0.2147,0.2171,0.2174,0.2224,0.2225,0.2226,0.225,0.225,0.225,0.2249,0.23,0.2302,0.2305,0.2329,0,0,0.2312,0.2313,0,0,0,0,0,0,0,0,0.2109,0.2115,0.2166,0.2169,0.2173,0.2228,0.2213,0.226,0.2251,0.2221,0.225,0.2249,0.2275,0.228,0.2294,0.2331,0.2333,0.2313,0.2314,0.2315,0.2316,0,0,0,0,0,0,0,0.2105,0.2112,0.2177,0.2168,0.2171,0.2191,0.2198,0.2222,0.2248,0.2223,0.2225,0.2235,0.2277,0.2292,0.2296,0.2334,0.2313,0.2315,0.2316,0.2317,0.2424,0.2425,0,0,0,0,0,0,0.2096,0.2109,0.2174,0.2179,0.214,0.2193,0.22,0.221,0.2249,0.2255,0.2236,0.2236,0.2288,0.2293,0.2298,0.2342,0.2315,0.2317,0.2319,0.2422,0.2424,0.2426,0,0,0,0,0,0,0.2094,0.2101,0.2171,0.2146,0.2157,0.2195,0.2206,0.2212,0.223,0.2258,0.2264,0.2248,0.2288,0.2294,0.233,0.2344,0.2319,0.2321,0.2421,0.2423,0.2425,0.2422,0,0,0,0,0,0,0.2091,0.21,0.2103,0.2146,0.2158,0.2205,0.2206,0.2214,0.2237,0.2239,0.2271,0.2275,0.2288,0.2326,0.2332,0.2346,0.2323,0.2419,0.2422,0.2424,0.242,0.2424,0.2426,0,0,0,0,0,0.2088,0.2092,0.2103,0.2111,0.2161,0.2206,0.2214,0.2239,0.2238,0.2252,0.2276,0.2274,0.2347,0.2329,0.2336,0.2351,0.2418,0.2421,0.2424,0.2419,0.2423,0.2426,0,0,0,0,0,0,0.2055,0.2096,0.2109,0.2125,0.2165,0.221,0.2223,0.2241,0.2271,0.2269,0.2291,0.2298,0.2341,0.2349,0.2329,0.2392,0.2383,0.2387,0.2377,0.238,0.2383,0.2412,0.2325,0,0,0,0,0,0.205,0.2062,0.2111,0.2124,0.2143,0.2184,0.2204,0.2223,0.2256,0.2269,0.229,0.2318,0.236,0.237,0.2406,0.2432,0.2467,0.2449,0.2452,0.2454,0.2484,0.2546,0.2557,0.2436,0.2435,0.2435,0,0,0.2038,0.2065,0.207,0.2118,0.2148,0.2182,0.2195,0.2226,0.2256,0.227,0.2306,0.2335,0.2374,0.2413,0.2431,0.2417,0.2505,0.2458,0.2459,0.2489,0.255,0.2562,0.2573,0.2438,0.2437,0.2437,0,0,0.2025,0.2049,0.2058,0.2094,0.2142,0.2176,0.2186,0.2233,0.2256,0.2294,0.2323,0.2367,0.2399,0.2447,0.2471,0.2515,0.2528,0.2511,0.2537,0.2596,0.2606,0.2616,0.2661,0.2675,0.25,0.25,0.25,0,0.2009,0.203,0.2068,0.2094,0.2122,0.2173,0.2197,0.2238,0.2289,0.2318,0.2302,0.2401,0.2426,0.2508,0.2524,0.2524,0.2551,0.2512,0.2599,0.261,0.262,0.2664,0.2679,0.25,0.25,0.25,0.25,0,0.2007,0.2031,0.2042,0.2092,0.213,0.2158,0.2223,0.2259,0.2283,0.2326,0.2401,0.2444,0.2501,0.2515,0.2532,0.2621,0.2614,0.2602,0.2586,0.2632,0.2675,0.2691,0.2501,0.2501,0.25,0.25,0,0,0.1954,0.2024,0.2027,0.2051,0.2129,0.2159,0.2221,0.2296,0.2338,0.2388,0.2446,0.2529,0.2553,0.2587,0.2615,0.2671,0.2757,0.2663,0.2666,0.2702,0.2879,0.2784,0.2793,0.2748,0.2751,0.2754,0.2874,0,0.1941,0.1976,0.202,0.2064,0.2094,0.2164,0.2218,0.2294,0.2354,0.2423,0.2501,0.2565,0.258,0.2601,0.2666,0.2743,0.2802,0.2726,0.2837,0.2841,0.2746,0.281,0.2514,0.2588,0.289,0.2892,0.2894,0,0.1927,0.1955,0.1984,0.2058,0.2076,0.2106,0.2202,0.2259,0.2384,0.243,0.2519,0.258,0.2697,0.2681,0.2846,0.2791,0.2847,0.2898,0.2903,0.2835,0.2777,0.2596,0.2607,0.2921,0.2919,0.2917,0.2915,0,0.1876,0.1933,0.195,0.1975,0.2064,0.2085,0.2135,0.2251,0.2312,0.244,0.249,0.2627,0.2684,0.2796,0.2904,0.2878,0.3072,0.3038,0.3015,0.3008,0.2793,0.2762,0.3165,0.3165,0.3165,0.3164,0.3164,0,0.1856,0.1873,0.1918,0.1931,0.1956,0.2033,0.2084,0.2161,0.2278,0.2366,0.2481,0.2574,0.2716,0.2838,0.293,0.3024,0.3091,0.3052,0.3044,0.2781,0.2748,0.3066,0.3053,0.3169,0.3168,0.3167,0.3166,0,0.1816,0.1844,0.1866,0.1922,0.1933,0.1951,0.2038,0.2091,0.2201,0.2318,0.2361,0.2546,0.2708,0.2847,0.3029,0.3033,0.3147,0.3163,0.2839,0.2791,0.3038,0.3023,0.3149,0.3147,0.3145,0.3144,0.3143,0,0.1807,0.1808,0.1837,0.1838,0.1856,0.189,0.1925,0.2037,0.211,0.2314,0.2375,0.2554,0.2684,0.2894,0.291,0.3021,0.3159,0.2833,0.2736,0.3062,0.3043,0.3031,0.3019,0.2449,0.2442,0.2436,0.2432,0,0.1788,0.1784,0.1796,0.179,0.1802,0.1831,0.189,0.1937,0.2095,0.2197,0.2368,0.2481,0.2622,0.2594,0.2693,0.2727,0.2784,0.2723,0.3165,0.2491,0.2409,0.2387,0.2397,0.2382,0.2387,0.2391,0.2393,0.2395,0.1766,0.1755,0.1751,0.1747,0.1754,0.1771,0.1786,0.1869,0.1963,0.2041,0.2226,0.2268,0.2293,0.227,0.2303,0.2323,0.2504,0.2434,0.2448,0.2469,0.236,0.2278,0.2206,0.221,0.2213,0.2216,0.2219,0,0.1736,0.172,0.1715,0.1701,0.1689,0.1711,0.1766,0.1755,0.1825,0.1846,0.1912,0.1749,0.175,0.1868,0.1784,0.1829,0.1782,0.1828,0.1738,0.1786,0.1829,0.1685,0.1355,0.1353,0.1351,0.135,0,0,0.1719,0.169,0.1684,0.1642,0.1629,0.1591,0.1606,0.1566,0.1561,0.1469,0.1415,0.1439,0.1656,0.1382,0.1414,0.139,0.1566,0.1338,0.2012,0.194,0.1981,0.2148,0.1977,0,0,0,0,0]},{"header":{"parameterUnit":"m.s-1","parameterCategory":2,"la1":30.2991,"la2":30.254,"lo1":-89.0895,"lo2":-89.0444,"dy":0.0017,"dx":0.0017,"nx":28,"ny":28,"refTime":"2025-08-15T09:00:00:Z","depth":"2","parameterNumber":3,"parameterNumberName":"V-component_of_CURRENTS"},"data":[0,0,0,0,0,0,0,0,0,0,0,0,0,0,0,0,0,0,0,0,0,0,0,0,0,0,0,0,0,0,0,0,0,0,0,0,0,0,0,0,0,0,0,0,0,0,0,0,0,0,0,0,0,0,0,0,0,0,0.0596,0.0595,0,0.0542,0.0541,0.054,0.048,0.0479,0.0478,0.0478,0.0365,0.0363,0.0361,0,0,0,0,0,0,0,0,0,0,0,0,0,0.0644,0.0643,0.0596,0.0595,0.0595,0.0542,0.0541,0.054,0.048,0.0479,0.0478,0.0477,0.0366,0.0363,0.036,0,0,0,0,0,0,0,0,0,0,0,0,0,0.0608,0.0643,0.0596,0.056,0.0556,0.0542,0.0541,0.054,0.048,0.0479,0.0478,0.0477,0.0367,0.0363,0.036,0.036,0,0,0.0349,0.0348,0,0,0,0,0,0,0,0,0.0611,0.0606,0.0565,0.0562,0.0558,0.0518,0.0517,0.0478,0.048,0.0507,0.0478,0.0476,0.0413,0.0405,0.0396,0.0355,0.035,0.0349,0.0347,0.0345,0.0344,0,0,0,0,0,0,0,0.0613,0.0608,0.0573,0.0565,0.0561,0.0545,0.0539,0.0509,0.0464,0.0505,0.0501,0.0498,0.041,0.04,0.0393,0.0349,0.0349,0.0346,0.0344,0.0342,0.0293,0.0293,0,0,0,0,0,0,0.0625,0.0611,0.0574,0.0571,0.0584,0.0546,0.0538,0.053,0.0466,0.0456,0.0499,0.0495,0.0406,0.0397,0.0389,0.0389,0.0345,0.0342,0.034,0.0292,0.0293,0.0294,0,0,0,0,0,0,0.0626,0.0622,0.0576,0.0591,0.0585,0.0546,0.0538,0.053,0.0522,0.0462,0.045,0.0499,0.0405,0.0393,0.0368,0.0383,0.0341,0.0337,0.0291,0.0292,0.0293,0.0386,0,0,0,0,0,0,0.0627,0.0622,0.063,0.0592,0.0584,0.0583,0.0539,0.053,0.0522,0.0517,0.0459,0.0447,0.0403,0.0374,0.0364,0.0378,0.0335,0.029,0.0292,0.0293,0.0382,0.039,0.0397,0,0,0,0,0,0.0629,0.0644,0.0631,0.0627,0.0593,0.0584,0.0579,0.0546,0.0524,0.0532,0.0487,0.0449,0.0376,0.0372,0.0361,0.0373,0.0289,0.0291,0.0293,0.0379,0.0389,0.0397,0,0,0,0,0,0,0.0675,0.0638,0.0623,0.0627,0.0614,0.0575,0.0584,0.0557,0.0529,0.0521,0.0459,0.0445,0.0431,0.0391,0.0387,0.0363,0.0326,0.0326,0.0395,0.0404,0.0412,0.0425,0.0332,0,0,0,0,0,0.0689,0.0686,0.0655,0.0662,0.0659,0.0624,0.0619,0.0595,0.0562,0.0549,0.0505,0.046,0.043,0.0409,0.0377,0.0364,0.0325,0.0364,0.0372,0.0379,0.0383,0.0343,0.0348,0.0299,0.0299,0.0299,0,0,0.0711,0.0691,0.0691,0.0672,0.0659,0.0664,0.0618,0.0617,0.0617,0.0541,0.053,0.0489,0.0435,0.0421,0.041,0.0387,0.0374,0.0381,0.0387,0.0387,0.0346,0.035,0.0354,0.0301,0.03,0.03,0,0,0.0754,0.0737,0.0749,0.0741,0.0726,0.0705,0.0709,0.0674,0.0657,0.0639,0.059,0.0562,0.0507,0.0477,0.0452,0.0485,0.0421,0.047,0.0512,0.0474,0.0478,0.0481,0.0446,0.0445,0.0467,0.0467,0.0467,0,0.0785,0.0786,0.0757,0.0768,0.0769,0.0728,0.0747,0.073,0.0689,0.0682,0.0647,0.0579,0.0536,0.0521,0.0526,0.0503,0.0466,0.0483,0.0485,0.0487,0.0488,0.0451,0.0449,0.0472,0.0471,0.0471,0.047,0,0.0829,0.0835,0.0847,0.0842,0.0845,0.0855,0.0828,0.0825,0.0792,0.0765,0.0742,0.0678,0.0631,0.0618,0.0576,0.0568,0.0535,0.0506,0.0464,0.0499,0.0458,0.0454,0.0479,0.0477,0.0476,0.0474,0,0,0.0874,0.0877,0.0879,0.0888,0.0881,0.0884,0.09,0.0896,0.0902,0.0854,0.0849,0.0795,0.0747,0.0716,0.0662,0.0628,0.0606,0.0569,0.0565,0.054,0.0518,0.0482,0.0473,0.057,0.0569,0.0569,0.0489,0,0.0916,0.0947,0.0938,0.0974,0.0989,0.0969,0.0985,0.0977,0.0954,0.094,0.0879,0.0843,0.0788,0.075,0.0716,0.0632,0.0597,0.063,0.0483,0.0479,0.0448,0.0468,0.0388,0.0308,0.0484,0.0483,0.0483,0,0.0953,0.0966,0.1004,0.1027,0.1033,0.1043,0.1057,0.1065,0.1048,0.1025,0.0987,0.0927,0.0872,0.0809,0.0695,0.0713,0.0624,0.0559,0.0554,0.0484,0.0436,0.0299,0.0293,0.0475,0.0476,0.0476,0.0477,0,0.0978,0.1012,0.1039,0.1045,0.1066,0.1074,0.108,0.1082,0.1089,0.106,0.1044,0.0984,0.0915,0.0824,0.0686,0.0679,0.0558,0.0529,0.0419,0.0416,0.03,0.0287,0.0448,0.0448,0.0449,0.0449,0.0449,0,0.1012,0.1033,0.1044,0.1055,0.1084,0.109,0.1114,0.1116,0.1117,0.1134,0.1068,0.1055,0.0907,0.082,0.0712,0.0556,0.0571,0.0431,0.0393,0.0331,0.0323,0.0427,0.0426,0.0446,0.0446,0.0447,0.0448,0,0.1025,0.1037,0.1065,0.1086,0.109,0.1102,0.112,0.1151,0.1135,0.115,0.1131,0.1077,0.0969,0.0833,0.0673,0.0565,0.0438,0.0376,0.0317,0.0275,0.0316,0.032,0.0249,0.0247,0.0246,0.0244,0.0243,0,0.103,0.1044,0.1072,0.1089,0.1089,0.1106,0.1134,0.1146,0.1191,0.1177,0.1202,0.1089,0.1071,0.0834,0.0573,0.0369,0.0404,0.0182,0.0158,0.0325,0.0296,0.0303,0.0309,0.0039,0.0036,0.0034,0.0032,0,0.1035,0.104,0.1063,0.1099,0.1123,0.1165,0.1206,0.1252,0.1283,0.1315,0.1357,0.1336,0.1042,0.0786,0.0465,0.0327,0.0213,0.0131,0.0301,0.0115,0.0123,0.0096,0.011,0.0012,0.0014,0.0016,0.0017,0.0018,0.1025,0.1042,0.1076,0.1111,0.1152,0.1234,0.1291,0.1379,0.1473,0.1481,0.1471,0.1372,0.102,0.055,0.0304,0.0017,0.0069,-0.0024,-0.0017,-0.0007,-0.0004,0.0003,-0.013,-0.0129,-0.0128,-0.0128,-0.0127,0,0.101,0.1045,0.1089,0.1148,0.1212,0.1227,0.1354,0.1439,0.1591,0.1499,0.1508,0.1137,0.0832,0.0486,0.0004,-0.0218,-0.0234,-0.0254,-0.0245,-0.0226,-0.0208,-0.0213,-0.0397,-0.0398,-0.0399,-0.0399,0,0,0.1001,0.1042,0.108,0.1184,0.1233,0.1344,0.143,0.1556,0.1563,0.1504,0.1339,0.1133,0.078,0.0375,0.0052,-0.0175,-0.0135,-0.0214,0.0013,0.0076,0.0097,-0.0081,-0.0068,0,0,0,0,0]}],[{"header":{"parameterUnit":"m.s-1","parameterCategory":2,"la1":30.2991,"la2":30.254,"lo1":-89.0895,"lo2":-89.0444,"dy":0.0017,"dx":0.0017,"nx":28,"ny":28,"refTime":"2025-08-15T09:00:00:Z","depth":"4","parameterNumber":2,"parameterNumberName":"U-component_of_CURRENTS"},"data":[0,0,0,0,0,0,0,0,0,0,0,0,0,0,0,0,0,0,0,0,0,0,0,0,0,0,0,0,0,0,0,0,0,0,0,0,0,0,0,0,0,0,0,0,0,0,0,0,0,0,0,0,0,0,0,0,0,0,0.0721,0.0721,0,0.0764,0.0765,0.0765,0.0818,0.0819,0.082,0.0821,0.0854,0.0854,0.0854,0,0,0,0,0,0,0,0,0,0,0,0,0,0.0662,0.0663,0.0721,0.0721,0.0722,0.0764,0.0765,0.0766,0.0818,0.0819,0.082,0.0821,0.0854,0.0854,0.0854,0,0,0,0,0,0,0,0,0,0,0,0,0,0.0694,0.0663,0.072,0.0753,0.0757,0.0764,0.0765,0.0766,0.0818,0.0819,0.0821,0.0822,0.0854,0.0854,0.0854,0.083,0,0,0.0855,0.0855,0,0,0,0,0,0,0,0,0.0693,0.0697,0.0748,0.0751,0.0755,0.0787,0.0756,0.0787,0.0818,0.0795,0.0821,0.0822,0.083,0.0832,0.0838,0.0832,0.0833,0.0855,0.0855,0.0855,0.0855,0,0,0,0,0,0,0,0.069,0.0695,0.0738,0.0748,0.0753,0.0759,0.0765,0.0762,0.0804,0.0797,0.0801,0.0805,0.0832,0.0837,0.0839,0.0834,0.0855,0.0855,0.0855,0.0855,0.0889,0.089,0,0,0,0,0,0,0.0685,0.0693,0.0736,0.0739,0.0726,0.0759,0.0766,0.0776,0.0805,0.0811,0.0804,0.0808,0.0836,0.0838,0.084,0.0888,0.0855,0.0855,0.0855,0.0889,0.089,0.089,0,0,0,0,0,0,0.0683,0.0688,0.0735,0.0717,0.0723,0.0759,0.0769,0.0776,0.0806,0.0811,0.0817,0.0831,0.0837,0.084,0.0865,0.0886,0.0855,0.0855,0.0888,0.0889,0.089,0.0935,0,0,0,0,0,0,0.0682,0.0688,0.0703,0.0716,0.0724,0.0757,0.0768,0.0776,0.0805,0.0811,0.0834,0.0838,0.0839,0.0865,0.0865,0.0886,0.0855,0.0887,0.0888,0.089,0.0932,0.0937,0.0942,0,0,0,0,0,0.0679,0.0691,0.0703,0.0709,0.074,0.0758,0.0763,0.0791,0.0806,0.0823,0.0842,0.0838,0.0875,0.0866,0.0866,0.0887,0.0886,0.0888,0.089,0.093,0.0936,0.0942,0,0,0,0,0,0,0.0667,0.0698,0.0711,0.0731,0.0752,0.0768,0.0788,0.0801,0.0829,0.0842,0.0846,0.0851,0.0876,0.0875,0.0865,0.0902,0.088,0.0882,0.0911,0.0917,0.0921,0.095,0.0856,0,0,0,0,0,0.067,0.0697,0.0716,0.0735,0.0748,0.0771,0.0785,0.0804,0.0824,0.084,0.0863,0.0878,0.0878,0.0894,0.0896,0.0918,0.0914,0.0933,0.0937,0.0941,0.0965,0.0956,0.0962,0.0896,0.0896,0.0896,0,0,0.0671,0.0691,0.0707,0.0736,0.0757,0.0772,0.0784,0.0814,0.0832,0.0836,0.0885,0.0892,0.0884,0.091,0.0922,0.0919,0.096,0.0944,0.0947,0.0969,0.0958,0.0965,0.097,0.0898,0.0898,0.0897,0,0,0.0675,0.0705,0.0726,0.0749,0.0783,0.079,0.0803,0.0839,0.0867,0.0901,0.0904,0.093,0.0949,0.0953,0.0949,0.0979,0.0975,0.0986,0.1046,0.1036,0.1042,0.1046,0.1056,0.1061,0.1,0.1,0.1,0,0.0679,0.0704,0.0733,0.0757,0.078,0.0799,0.0821,0.0839,0.0884,0.0912,0.0926,0.0964,0.0964,0.0976,0.1006,0.099,0.0999,0.1023,0.1043,0.1047,0.1051,0.1059,0.1065,0.1002,0.1002,0.1002,0.1001,0,0.0689,0.0723,0.0738,0.0775,0.0799,0.0825,0.085,0.0897,0.0932,0.0947,0.0993,0.1002,0.1034,0.1033,0.1038,0.1072,0.1073,0.1038,0.1028,0.106,0.1067,0.1072,0.1006,0.1005,0.1004,0.1003,0,0,0.0672,0.0734,0.0744,0.0773,0.0819,0.0836,0.0884,0.0924,0.0959,0.1005,0.1054,0.1072,0.1099,0.11,0.1104,0.1118,0.1159,0.1121,0.1119,0.1132,0.1169,0.1107,0.1106,0.1135,0.1136,0.1137,0.1164,0,0.0678,0.0721,0.0754,0.0799,0.0824,0.088,0.091,0.0954,0.0999,0.1052,0.1071,0.1105,0.1109,0.1147,0.1159,0.1156,0.1174,0.1157,0.1135,0.1135,0.1077,0.1109,0.114,0.1167,0.1168,0.1169,0.117,0,0.0679,0.0711,0.0757,0.0824,0.0841,0.0874,0.0957,0.0986,0.1051,0.1101,0.1154,0.1167,0.1216,0.1204,0.1224,0.1222,0.122,0.1209,0.1208,0.1142,0.1082,0.1127,0.1178,0.1177,0.1176,0.1176,0.1175,0,0.0647,0.0717,0.0756,0.0782,0.0848,0.0906,0.0944,0.1013,0.1051,0.1146,0.1194,0.1227,0.1267,0.1263,0.1265,0.1262,0.127,0.1236,0.1173,0.1169,0.1196,0.119,0.1247,0.1247,0.1247,0.1247,0.1247,0,0.0635,0.0668,0.0756,0.0779,0.0833,0.0894,0.0963,0.1024,0.1103,0.1141,0.1216,0.1247,0.1291,0.1297,0.1284,0.1248,0.1277,0.1203,0.1173,0.1215,0.1211,0.1199,0.1194,0.1248,0.1248,0.1248,0.1247,0,0.059,0.0644,0.0695,0.0787,0.0821,0.0865,0.0974,0.1016,0.1108,0.1175,0.1215,0.1285,0.1302,0.131,0.1308,0.1267,0.1231,0.1206,0.1277,0.1248,0.114,0.1136,0.1152,0.115,0.1148,0.1147,0.1146,0,0.0566,0.0591,0.0692,0.0728,0.0781,0.0863,0.0912,0.1016,0.1056,0.1171,0.1178,0.125,0.1287,0.122,0.1241,0.1214,0.1191,0.1187,0.1159,0.1162,0.1131,0.113,0.1128,0.1143,0.1143,0.1142,0.1142,0,0.0514,0.0563,0.0601,0.0679,0.0749,0.081,0.0889,0.0907,0.1018,0.1121,0.1134,0.1158,0.1175,0.1167,0.1168,0.1134,0.1198,0.117,0.1173,0.1146,0.1151,0.1122,0.1123,0.1136,0.1137,0.1137,0.1138,0,0.048,0.0496,0.0556,0.062,0.0704,0.0738,0.0781,0.0832,0.0881,0.1008,0.1006,0.1073,0.1152,0.1124,0.1103,0.1094,0.1079,0.105,0.1059,0.1066,0.1025,0.1018,0.0951,0,0,0,0,0,0.0447,0.0457,0.0495,0.0562,0.0644,0.0684,0.0758,0.0798,0.0906,0.0893,0.0951,0.0964,0.0987,0.1001,0.0972,0.1057,0.1071,0.1021,0.1039,0.1105,0.1111,0.1072,0,0,0,0,0,0,0.0422,0.0454,0.0465,0.0507,0.0544,0.0612,0.0649,0.0704,0.0688,0.0804,0.0796,0.0924,0.0922,0.0993,0.0959,0.097,0.0966,0.1076,0.1074,0.1101,0.1107,0.1112,0.1074,0,0,0,0,0]},{"header":{"parameterUnit":"m.s-1","parameterCategory":2,"la1":30.2991,"la2":30.254,"lo1":-89.0895,"lo2":-89.0444,"dy":0.0017,"dx":0.0017,"nx":28,"ny":28,"refTime":"2025-08-15T09:00:00:Z","depth":"4","parameterNumber":3,"parameterNumberName":"V-component_of_CURRENTS"},"data":[0,0,0,0,0,0,0,0,0,0,0,0,0,0,0,0,0,0,0,0,0,0,0,0,0,0,0,0,0,0,0,0,0,0,0,0,0,0,0,0,0,0,0,0,0,0,0,0,0,0,0,0,0,0,0,0,0,0,0.0033,0.0033,0,0.0006,0.0006,0.0005,-0.0002,-0.0002,-0.0001,-0.0001,-0.003,-0.0031,-0.0032,0,0,0,0,0,0,0,0,0,0,0,0,0,0.0046,0.0046,0.0033,0.0033,0.0033,0.0006,0.0006,0.0005,-0.0002,-0.0002,-0.0001,-0.0001,-0.0029,-0.0031,-0.0032,0,0,0,0,0,0,0,0,0,0,0,0,0,0.0031,0.0046,0.0033,0.0027,0.0026,0.0006,0.0006,0.0005,-0.0002,-0.0002,-0.0001,-0.0001,-0.0029,-0.003,-0.0032,-0.005,0,0,-0.0037,-0.0037,0,0,0,0,0,0,0,0,0.0032,0.003,0.0028,0.0027,0.0027,0.0007,-0.0,-0.0013,-0.0002,0.0007,-0.0001,-0.0,-0.0017,-0.0019,-0.0027,-0.0052,-0.0053,-0.0037,-0.0038,-0.0039,-0.0039,0,0,0,0,0,0,0,0.0033,0.0031,0.0021,0.0028,0.0027,0.0015,0.0013,-0.0003,-0.0008,0.0006,0.0006,0.0005,-0.0017,-0.0026,-0.0028,-0.0053,-0.0037,-0.0038,-0.0039,-0.004,-0.0104,-0.0105,0,0,0,0,0,0,0.004,0.0032,0.0022,0.002,0.0032,0.0014,0.0013,0.0012,-0.0008,-0.001,0.0005,0.0005,-0.0024,-0.0026,-0.0029,-0.0055,-0.0038,-0.004,-0.0041,-0.0104,-0.0105,-0.0105,0,0,0,0,0,0,0.0041,0.0039,0.0023,0.0027,0.0024,0.0014,0.0013,0.0011,0.0005,-0.0009,-0.0011,0.0002,-0.0023,-0.0027,-0.0046,-0.0056,-0.0041,-0.0042,-0.0103,-0.0104,-0.0105,-0.0104,0,0,0,0,0,0,0.0041,0.004,0.0039,0.0027,0.0024,0.0013,0.0013,0.001,0.0004,0.0004,-0.0013,-0.0015,-0.0023,-0.0044,-0.0048,-0.0058,-0.0043,-0.0102,-0.0103,-0.0105,-0.0103,-0.0105,-0.0107,0,0,0,0,0,0.0042,0.0041,0.0039,0.0038,0.0025,0.0013,0.001,0.0003,0.0004,-0.0001,-0.0014,-0.0014,-0.0056,-0.0046,-0.005,-0.0061,-0.0101,-0.0103,-0.0104,-0.0103,-0.0105,-0.0107,0,0,0,0,0,0,0.0048,0.004,0.0038,0.0036,0.0026,0.0012,0.0008,0.0003,-0.0012,-0.0012,-0.0024,-0.0027,-0.0051,-0.0057,-0.0045,-0.0085,-0.0079,-0.0082,-0.0076,-0.0079,-0.008,-0.0069,-0.0045,0,0,0,0,0,0.0049,0.0046,0.0037,0.0034,0.0031,0.0019,0.0013,0.0007,-0.0005,-0.0011,-0.0024,-0.0041,-0.0063,-0.007,-0.009,-0.0108,-0.0115,-0.0119,-0.0121,-0.0122,-0.0117,-0.0144,-0.0147,-0.0111,-0.0111,-0.0111,0,0,0.005,0.0046,0.0044,0.0034,0.0027,0.0023,0.0016,0.0008,0.0004,-0.0013,-0.0025,-0.0049,-0.0071,-0.0095,-0.0105,-0.0099,-0.0137,-0.0125,-0.0126,-0.012,-0.0146,-0.015,-0.0153,-0.0112,-0.0112,-0.0112,0,0,0.0055,0.0048,0.005,0.0042,0.0033,0.0024,0.0024,0.0009,0.0001,-0.0017,-0.0034,-0.0063,-0.0088,-0.0109,-0.0122,-0.0146,-0.0149,-0.0154,-0.0149,-0.0175,-0.0178,-0.018,-0.0191,-0.0195,-0.015,-0.015,-0.015,0,0.0057,0.0062,0.0047,0.0048,0.0047,0.0028,0.0032,0.0017,-0.0004,-0.0011,-0.0019,-0.0074,-0.0096,-0.0126,-0.0138,-0.015,-0.0158,-0.0136,-0.0176,-0.0179,-0.0181,-0.0192,-0.0196,-0.015,-0.015,-0.015,-0.015,0,0.0067,0.0069,0.007,0.0067,0.0059,0.0058,0.0041,0.003,0.0015,-0.0002,-0.0037,-0.0077,-0.0104,-0.0126,-0.014,-0.0173,-0.017,-0.0178,-0.0167,-0.0185,-0.0195,-0.0199,-0.015,-0.015,-0.015,-0.015,0,0,0.0081,0.0079,0.008,0.0088,0.0072,0.007,0.0058,0.0045,0.0044,0.0001,-0.0011,-0.007,-0.0093,-0.011,-0.0139,-0.017,-0.0204,-0.0179,-0.0181,-0.0183,-0.025,-0.0237,-0.024,-0.0217,-0.0218,-0.0218,-0.0248,0,0.0098,0.0114,0.0102,0.0113,0.0123,0.0101,0.0094,0.0075,0.0053,0.0031,-0.0024,-0.0048,-0.0086,-0.0099,-0.014,-0.0187,-0.0215,-0.0194,-0.0238,-0.0239,-0.0219,-0.0244,-0.0221,-0.0251,-0.0252,-0.0253,-0.0253,0,0.0118,0.0128,0.0148,0.0151,0.0153,0.0155,0.0149,0.0137,0.0097,0.008,0.0037,-0.0004,-0.006,-0.0087,-0.0174,-0.0157,-0.0201,-0.0241,-0.0243,-0.0231,-0.0234,-0.0231,-0.0261,-0.026,-0.026,-0.0259,-0.0259,0,0.015,0.016,0.0182,0.0183,0.018,0.0188,0.0184,0.0157,0.0158,0.0116,0.0113,0.0033,0.0008,-0.0072,-0.016,-0.0163,-0.0253,-0.0265,-0.0294,-0.0293,-0.0294,-0.029,-0.0322,-0.0322,-0.0322,-0.0322,-0.0322,0,0.0177,0.0193,0.0206,0.0219,0.0246,0.0228,0.0248,0.0231,0.0214,0.0219,0.0146,0.0128,0.0011,-0.0058,-0.0146,-0.023,-0.0239,-0.0294,-0.0303,-0.0293,-0.0289,-0.0296,-0.0293,-0.0323,-0.0323,-0.0323,-0.0323,0,0.0204,0.0211,0.024,0.0256,0.0264,0.0284,0.0302,0.0314,0.0296,0.0301,0.0294,0.0208,0.0116,-0.0001,-0.0127,-0.019,-0.0286,-0.0311,-0.0281,-0.0288,-0.031,-0.0306,-0.0343,-0.0343,-0.0343,-0.0343,-0.0343,0,0.0217,0.0239,0.0275,0.0297,0.0309,0.0339,0.036,0.0358,0.0371,0.0347,0.0347,0.0268,0.0199,0.0029,-0.0102,-0.0257,-0.0281,-0.0316,-0.033,-0.0309,-0.0314,-0.031,-0.0307,-0.0343,-0.0343,-0.0343,-0.0343,0,0.024,0.0257,0.028,0.0334,0.037,0.0403,0.0431,0.0448,0.0444,0.0447,0.0399,0.0302,0.0198,0.0039,-0.0074,-0.0193,-0.0291,-0.0315,-0.0316,-0.033,-0.0309,-0.0313,-0.031,-0.0342,-0.0342,-0.0342,-0.0342,0,0.0256,0.0277,0.0314,0.036,0.0411,0.0442,0.0452,0.0464,0.0473,0.0455,0.0439,0.0316,0.0249,0.0073,-0.0043,-0.015,-0.018,-0.0208,-0.0215,-0.0217,-0.018,-0.0134,-0.0122,0,0,0,0,0,0.0273,0.0296,0.0334,0.0382,0.0436,0.0461,0.0489,0.0491,0.0505,0.0487,0.0465,0.0365,0.0194,0.0099,-0.0004,-0.0056,-0.0209,-0.0181,-0.0247,-0.034,-0.0341,-0.0318,0,0,0,0,0,0,0.0278,0.0317,0.0333,0.0397,0.0435,0.0485,0.0501,0.05,0.0476,0.0476,0.0373,0.036,0.0172,0.0264,0.0002,-0.0032,-0.0084,-0.0257,-0.0259,-0.034,-0.034,-0.0341,-0.0318,0,0,0,0,0]}]]